Regional Weather Roundup
Issued by NWS

Home | Current Version | Previous Version | Text Only | Print | Product List | Glossary On
Versions: 1 2 3 4 5 6 7 8 9 10 11 12 13 14 15 16 17 18 19 20 21 22 23 24 25 26 27
000
ASUS45 KBOI 251610
RWRID

IDAHO REGIONAL WEATHER ROUNDUP
NATIONAL WEATHER SERVICE BOISE ID
1000 AM MDT FRI MAY 25 2018

NOTE: "FAIR" INDICATES FEW OR NO CLOUDS BELOW 12000 FEET
WITH NO SIGNIFICANT WEATHER AND/OR OBSTRUCTIONS TO VISIBILITY

IDZ012-014-251700-
SOUTHWEST IDAHO


CITY           SKY/WX    TMP DP  RH WIND       PRES   REMARKS
BOISE          SUNNY     70  52  52 VRB3      29.91F
CALDWELL       SUNNY     69  57  65 W9        29.92F
MOUNTAIN HOME  SUNNY     73  50  43 S3        29.91F
$$

IDZ016-017-251700-
SOUTHCENTRAL IDAHO


CITY           SKY/WX    TMP DP  RH WIND       PRES   REMARKS
BURLEY         SUNNY     68  51  54 E12       29.95S
JEROME         SUNNY     70  53  54 E12       29.95S
TWIN FALLS     SUNNY     66  52  60 NE7       29.95F
$$

IDZ019>023-251700-
SOUTHEAST IDAHO


CITY           SKY/WX    TMP DP  RH WIND       PRES   REMARKS
IDAHO FALLS    SUNNY     66  54  65 N8        30.04F
POCATELLO      SUNNY     66  50  56 NE8       30.01F
REXBURG        SUNNY     63  50  62 NE6       30.06F
$$

IDZ006-010-011-018-031-032-251700-
CENTRAL IDAHO MOUNTAINS


CITY           SKY/WX    TMP DP  RH WIND       PRES   REMARKS
MCCALL         LGT RAIN  58  48  69 N3        30.01F
HAILEY         SUNNY     63  45  51 NW14      30.05F
STANLEY          N/A     55  42  61 VRB5      30.11F
SALMON         SUNNY     59  50  72 CALM      30.05F
CHALLIS        SUNNY     61  47  59 CALM      30.07F
$$

IDZ002-004-006-007-026-251700-
NORTHERN IDAHO


CITY           SKY/WX    TMP DP  RH WIND       PRES   REMARKS
LEWISTON       MOSUNNY   69  58  67 VRB3      29.91F
LOWELL           N/A     59  55  87 CALM      29.94F
COEUR D`ALENE  SUNNY     70  55  59 S9        29.93F
MULLAN PASS    PTSUNNY   57  48  72 CALM      30.08S
$$




USA.gov is the U.S. government's official web portal to all federal, state and local government web resources and services.